Weather History for Philadelphia Wings Airport, PA

Change the Weather History Date:

Wednesday, February 13, 2013

  Actual Average (KPNE) Record (KPNE)
Temperature  
Mean Temperature 35 °F -  
Max Temperature 44 °F 41 °F 50 °F (2001)
Min Temperature 26 °F 25 °F 1 °F (2011)
Degree Days  
Heating Degree Days 30    
Moisture  
Dew Point 29 °F    
Average Humidity 80    
Maximum Humidity 100    
Minimum Humidity 53    
Precipitation  
Precipitation 0.09 in - - ()
Sea Level Pressure  
Sea Level Pressure 29.81 in    
Wind  
Wind Speed 1 mph (ENE)    
Max Wind Speed 7 mph    
Max Gust Speed -    
Visibility 8 miles    
Events      
Averages and records for this station are not official NWS values.
T = Trace of Precipitation, MM = Missing Value Source: NWS Daily Summary

Daily Weather History Graph

Daily Weather History Graph

Search for Another Location

Airport:

Trip Planner

Search our weather history database for the weather conditions in past years. The results will help you decide how hot, cold, wet, or windy it might be!

Date:

Astronomy

Feb. 13, 2013 Rise Set
Actual Time 6:56 AM EST 5:34 PM EST
Civil Twilight 6:28 AM EST 6:02 PM EST
Nautical Twilight 5:56 AM EST 6:34 PM EST
Astronomical Twilight 5:25 AM EST 7:06 PM EST
Moon 8:24 AM EST (2/13) 9:35 PM EST (2/13)
Length of Visible Light 11h 34m
Length of Day
10h 38m
Waxing Crescent, 13% of the Moon is Illuminated
Feb 13
Waxing Crescent
Feb 17
First Quarter
Feb 25
Full
Mar 4
Last Quarter
Mar 11
New

Hourly Weather History & Observations

Time (EST) Temp. Windchill Dew Point Humidity Pressure Visibility Wind Dir Wind Speed Gust Speed Precip Events Conditions
12:15 AM 32.0 °F - 28.4 °F 87% 29.96 in 10.0 mi Calm Calm - N/A   Clear
12:35 AM 32.0 °F - 28.4 °F 87% 29.95 in 10.0 mi Calm Calm - N/A   Clear
12:55 AM 32.0 °F 28.7 °F 26.6 °F 80% 29.95 in 10.0 mi West 3.5 mph - N/A   Clear
1:15 AM 32.0 °F - 26.6 °F 80% 29.96 in 10.0 mi Calm Calm - N/A   Clear
1:35 AM 32.0 °F - 26.6 °F 80% 29.96 in 10.0 mi Calm Calm - N/A   Clear
1:55 AM 30.2 °F - 26.6 °F 86% 29.96 in 10.0 mi Calm Calm - N/A   Clear
2:15 AM 30.2 °F - 26.6 °F 86% 29.95 in 10.0 mi Calm Calm - N/A   Clear
2:35 AM 28.4 °F - 26.6 °F 93% 29.94 in 10.0 mi Calm Calm - N/A   Clear
2:55 AM 28.4 °F - 26.6 °F 93% 29.93 in 10.0 mi Calm Calm - N/A   Clear
3:15 AM 28.4 °F - 26.6 °F 93% 29.92 in 10.0 mi Calm Calm - N/A   Clear
3:35 AM 28.4 °F - 26.6 °F 93% 29.91 in 10.0 mi Calm Calm - N/A   Clear
3:55 AM 28.4 °F - 26.6 °F 93% 29.90 in 10.0 mi Calm Calm - N/A   Clear
4:15 AM 28.4 °F - 26.6 °F 93% 29.91 in 10.0 mi Calm Calm - N/A   Clear
4:35 AM 28.4 °F - 26.6 °F 93% 29.91 in 10.0 mi Calm Calm - N/A   Clear
4:55 AM 28.4 °F - 26.6 °F 93% 29.91 in 10.0 mi Calm Calm - N/A   Clear
5:15 AM 26.6 °F - 26.6 °F 100% 29.90 in 7.0 mi Calm Calm - N/A   Clear
5:35 AM 26.6 °F - 26.6 °F 100% 29.90 in 7.0 mi Calm Calm - N/A   Clear
5:55 AM 26.6 °F - 26.6 °F 100% 29.90 in 7.0 mi Calm Calm - N/A   Clear
6:15 AM 26.6 °F - 24.8 °F 93% 29.89 in 7.0 mi Calm Calm - N/A   Clear
6:35 AM 26.6 °F - 26.6 °F 100% 29.90 in 7.0 mi Calm Calm - N/A   Clear
6:55 AM 26.6 °F - 26.6 °F 100% 29.90 in 7.0 mi Calm Calm - N/A   Clear
7:15 AM 26.6 °F - 26.6 °F 100% 29.90 in 5.0 mi Calm Calm - N/A   Clear
7:35 AM 26.6 °F - 26.6 °F 100% 29.90 in 5.0 mi Calm Calm - N/A   Clear
7:55 AM 28.4 °F - 28.4 °F 100% 29.89 in 5.0 mi Calm Calm - N/A   Clear
8:15 AM 32.0 °F - 28.4 °F 87% 29.89 in 10.0 mi Calm Calm - N/A   Clear
8:35 AM 33.8 °F - 28.4 °F 81% 29.88 in 10.0 mi Calm Calm - N/A   Clear
8:55 AM 35.6 °F 32.8 °F 30.2 °F 81% 29.88 in 10.0 mi East 3.5 mph - N/A   Clear
9:15 AM 35.6 °F - 30.2 °F 81% 29.88 in 10.0 mi Calm Calm - N/A   Clear
9:35 AM 35.6 °F - 28.4 °F 75% 29.88 in 10.0 mi Calm Calm - N/A   Clear
9:55 AM 37.4 °F - 28.4 °F 70% 29.88 in 10.0 mi Calm Calm - N/A   Clear
10:15 AM 37.4 °F 33.8 °F 28.4 °F 70% 29.89 in 10.0 mi ESE 4.6 mph - N/A   Clear
10:35 AM 39.2 °F 35.9 °F 28.4 °F 65% 29.88 in 10.0 mi East 4.6 mph - N/A   Clear
10:55 AM 41.0 °F 39.0 °F 26.6 °F 57% 29.86 in 10.0 mi East 3.5 mph - N/A   Clear
11:15 AM 41.0 °F 39.0 °F 26.6 °F 57% 29.86 in 10.0 mi East 3.5 mph - N/A   Clear
11:35 AM 41.0 °F 38.0 °F 28.4 °F 61% 29.86 in 10.0 mi East 4.6 mph - N/A   Clear
11:55 AM 41.0 °F 39.0 °F 26.6 °F 57% 29.83 in 10.0 mi East 3.5 mph - N/A   Clear
12:15 PM 41.0 °F 37.1 °F 26.6 °F 57% 29.82 in 10.0 mi East 5.8 mph - N/A   Clear
12:35 PM 42.8 °F 38.6 °F 28.4 °F 57% 29.80 in 10.0 mi East 6.9 mph - N/A   Clear
12:55 PM 42.8 °F 40.1 °F 28.4 °F 57% 29.79 in 10.0 mi SE 4.6 mph - N/A   Clear
1:15 PM 44.6 °F 40.7 °F 28.4 °F 53% 29.76 in 10.0 mi SE 6.9 mph - N/A   Clear
1:35 PM 44.6 °F 42.2 °F 28.4 °F 53% 29.76 in 10.0 mi ESE 4.6 mph - N/A   Clear
1:55 PM 42.8 °F 41.1 °F 28.4 °F 57% 29.76 in 10.0 mi East 3.5 mph - N/A   Clear
2:15 PM 44.6 °F 42.2 °F 28.4 °F 53% 29.75 in 10.0 mi East 4.6 mph - N/A   Clear
2:35 PM 44.6 °F 41.4 °F 28.4 °F 53% 29.74 in 10.0 mi ESE 5.8 mph - N/A   Clear
2:55 PM 44.6 °F 41.4 °F 28.4 °F 53% 29.73 in 10.0 mi East 5.8 mph - N/A   Clear
3:15 PM 44.6 °F 43.1 °F 28.4 °F 53% 29.73 in 10.0 mi NE 3.5 mph - N/A   Clear
3:35 PM 44.6 °F 40.7 °F 28.4 °F 53% 29.71 in 10.0 mi ENE 6.9 mph - N/A   Clear
3:55 PM 44.6 °F 41.4 °F 28.4 °F 53% 29.70 in 10.0 mi ENE 5.8 mph - N/A   Clear
4:15 PM 42.8 °F 39.3 °F 28.4 °F 57% 29.70 in 10.0 mi ENE 5.8 mph - N/A   Scattered Clouds
4:55 PM 42.8 °F 41.1 °F 28.4 °F 57% 29.68 in 10.0 mi NNE 3.5 mph - N/A   Scattered Clouds
5:15 PM 42.8 °F 40.1 °F 28.4 °F 57% 29.67 in 10.0 mi NE 4.6 mph - N/A   Mostly Cloudy
5:35 PM 41.0 °F 38.0 °F 28.4 °F 61% 29.68 in 10.0 mi ENE 4.6 mph - N/A   Mostly Cloudy
5:55 PM 41.0 °F 38.0 °F 28.4 °F 61% 29.68 in 10.0 mi NE 4.6 mph - N/A   Overcast
6:15 PM 41.0 °F 39.0 °F 30.2 °F 65% 29.68 in 10.0 mi NNE 3.5 mph - N/A   Overcast
6:35 PM 39.2 °F 35.0 °F 32.0 °F 75% 29.69 in 10.0 mi NNE 5.8 mph - N/A   Overcast
6:55 PM 37.4 °F 34.9 °F 32.0 °F 81% 29.70 in 5.0 mi North 3.5 mph - N/A   Overcast
7:15 PM 35.6 °F - 32.0 °F 87% 29.70 in 4.0 mi Calm Calm - 0.01 in   Overcast
7:35 PM 33.8 °F - 32.0 °F 93% 29.70 in 2.5 mi Calm Calm - 0.02 in   Overcast
7:55 PM 33.8 °F - 32.0 °F 93% 29.70 in 1.8 mi Calm Calm - 0.03 in   Overcast
8:15 PM 33.8 °F - 32.0 °F 93% 29.70 in 1.8 mi Calm Calm - 0.01 in   Overcast
8:35 PM 33.8 °F - 32.0 °F 93% 29.70 in 1.5 mi Calm Calm - 0.02 in   Overcast
8:55 PM 33.8 °F - 32.0 °F 93% 29.70 in 1.2 mi Calm Calm - 0.03 in   Overcast
9:15 PM 33.8 °F - 32.0 °F 93% 29.70 in 1.2 mi Calm Calm - N/A   Overcast
9:35 PM 33.8 °F - 33.8 °F 100% 29.70 in 1.0 mi Calm Calm - 0.02 in   Overcast
9:55 PM 33.8 °F - 33.8 °F 100% 29.70 in 1.5 mi Calm Calm - 0.03 in   Overcast
10:15 PM 33.8 °F - 33.8 °F 100% 29.70 in 2.0 mi Calm Calm - N/A   Overcast
10:35 PM 33.8 °F - 33.8 °F 100% 29.70 in 1.8 mi Calm Calm - N/A   Overcast
10:55 PM 33.8 °F 30.8 °F 33.8 °F 100% 29.70 in 2.0 mi NNW 3.5 mph - N/A   Overcast
11:15 PM 33.8 °F - 33.8 °F 100% 29.71 in 2.0 mi Calm Calm - N/A   Overcast
11:35 PM 33.8 °F 30.8 °F 33.8 °F 100% 29.71 in 2.0 mi NNW 3.5 mph - N/A   Overcast
11:55 PM 33.8 °F 30.8 °F 33.8 °F 100% 29.72 in 2.0 mi NW 3.5 mph - N/A   Overcast